Temp
23 21 21 21 20 20 20 20 20 20 20 19 19 19 19 19 18 18 19 19 19 19 19 19 19 19 19 18 18 18 18 18 18 18 18 18 18 18 18 19 20 18 18
22 23 21 20 20 21 20 19 20 19 20 20 19 19 19 19 18 18 18 18 19 19 19 19 19 18 18 18 17 18 19 18 18 18 19 18 18 18 18 19 19 18 17
22 23 21 21 20 20 20 20 19 20 20 20 20 20 19 18 18 18 18 18 18 19 18 18 18 18 18 17 17 18 18 18 19 19 19 20 18 17 18 18 18 18 17
23 22 22 20 20 20 20 20 20 19 20 20 19 19 19 18 18 19 18 19 19 18 18 18 18 17 17 18 17 17 17 18 19 19 20 20 19 17 17 17 18 17 17
22 21 21 20 20 20 20 20 20 19 19 19 19 19 19 19 19 19 18 19 18 19 19 18 18 17 17 18 17 17 17 18 19 19 19 19 20 17 17 17 17 17 17
22 20 20 20 19 19 19 20 20 19 20 19 19 19 19 19 19 19 19 19 19 18 18 18 18 17 17 17 17 17 18 18 18 19 19 19 18 17 17 17 17 17 17
22 21 20 19 19 19 19 19 20 19 20 20 19 19 19 19 18 18 19 19 18 18 18 18 18 18 17 17 17 17 18 18 18 19 19 19 18 17 16 16 16 16 16
21 21 20 20 19 19 19 19 19 20 20 20 19 19 19 19 19 19 18 19 18 18 18 17 17 17 17 17 17 17 18 18 18 19 19 20 18 17 17 16 16 16 16
21 20 21 20 20 20 19 19 19 19 19 19 19 19 19 19 18 18 19 18 18 17 17 17 16 17 17 17 17 17 18 18 19 19 20 19 17 17 16 16 15 15 15
20 20 20 19 19 20 20 20 19 19 19 19 19 19 19 19 18 18 18 18 18 17 17 16 16 17 17 17 17 17 18 19 19 19 19 18 17 16 16 16 15 15 15
20 20 19 19 19 19 19 20 19 19 19 19 19 19 19 18 18 18 18 18 18 17 17 16 16 16 16 16 17 17 17 18 19 20 19 18 17 16 16 15 15 14 14
20 20 19 19 18 18 19 20 20 20 19 18 18 18 18 19 18 18 18 18 18 17 17 16 16 16 16 17 16 17 17 19 20 19 18 18 16 16 15 15 14 14 13
19 19 18 18 18 18 19 19 20 21 21 19 18 18 18 18 18 18 18 17 17 17 16 15 15 15 17 19 18 17 18 20 20 19 17 16 15 15 15 14 14 13 13
18 18 17 17 17 17 18 18 19 20 21 20 20 19 17 18 18 18 17 17 17 16 17 16 16 17 18 18 18 19 20 20 20 19 17 16 15 15 14 14 13 13 13
19 18 17 16 16 17 17 18 18 19 20 20 20 20 19 17 17 18 17 16 16 16 17 17 18 18 18 18 18 19 19 19 19 18 16 15 14 14 14 14 13 13 13
19 18 17 16 16 16 16 17 17 18 19 19 19 20 19 17 16 16 16 16 16 16 17 17 17 17 17 18 18 18 19 19 17 16 15 14 14 14 14 14 13 13 13
18 17 17 16 15 16 16 16 17 17 17 18 19 19 18 18 14 14 15 16 15 15 15 16 16 16 17 17 17 17 17 16 15 15 14 14 13 13 13 13 13 13 13
18 18 17 17 16 16 16 16 16 17 17 17 18 18 17 17 14 14 13 14 14 13 13 13 12 14 15 16 15 15 15 14 13 12 12 12 13 13 13 13 13 13 13
18 18 17 17 16 16 16 16 16 16 16 17 17 17 17 16 15 13 14 13 14 13 12 12 12 14 14 14 14 13 12 11 12 12 12 12 12 12 13 13 13 12 12
18 18 17 17 16 16 16 16 16 16 16 15 16 17 16 15 15 14 13 12 12 12 11 11 12 13 13 12 12 11 11 11 11 11 12 12 12 12 12 12 12 12 11
18 17 17 17 17 16 15 16 16 17 17 16 14 14 16 15 15 14 13 12 12 12 11 11 11 11 12 11 10 10 10 10 10 10 11 11 11 11 11 12 11 10 10
18 17 16 16 15 15 14 14 14 14 15 16 16 13 13 15 14 13 13 12 12 11 11 10 10 11 11 11 10 9 9 9 10 11 10 11 10 11 11 11 11 10 9
17 16 16 15 14 14 13 13 13 13 13 14 14 14 13 12 12 13 12 12 11 11 11 11 11 11 11 10 11 13 10 11 9 9 10 10 10 10 10 9 9 9 8
17 16 14 14 13 13 13 12 12 12 13 14 14 14 14 12 12 12 13 12 11 11 11 11 11 11 11 10 10 13 13 12 9 8 8 9 10 10 9 8 8 7 7
16 15 14 13 13 12 12 12 12 12 12 12 13 14 14 13 12 11 12 12 11 11 11 10 10 10 10 10 11 11 12 12 12 11 8 7 8 9 8 8 7 6 6
15 14 13 13 12 12 12 12 12 11 11 11 11 12 13 13 12 11 11 11 11 11 11 10 10 10 10 11 11 12 13 13 13 13 11 8 8 7 6 6 6 6 5
Height
775 777 779 781 783 785 787 788 789 790 791 792 793 794 795 796 797 798 799 800 801 802 803 804 806 808 808 809 810 810 811 812 813 813 814 815 815 815 816 816 816 816 816
776 776 778 782 783 784 787 788 790 791 792 793 794 795 796 797 798 799 800 801 802 803 804 806 808 809 810 810 811 812 813 814 815 816 816 817 818 818 817 817 818 818 819
775 776 778 781 783 784 786 789 790 792 793 794 795 795 796 798 799 800 801 802 803 805 806 807 809 810 811 812 813 814 815 816 817 817 818 819 820 820 820 819 819 820 821
775 777 779 781 783 785 786 788 790 792 793 794 795 796 797 798 799 800 802 803 804 805 807 808 810 811 812 813 814 816 817 818 819 819 820 821 822 822 822 822 822 822 824
776 778 781 782 783 786 787 788 790 791 793 794 795 796 797 798 799 801 802 803 804 806 807 808 810 811 812 814 815 817 818 819 820 820 821 822 823 824 824 824 825 825 826
779 780 780 782 783 785 787 788 790 791 792 794 795 796 798 798 800 801 802 804 805 806 808 809 810 812 813 814 816 817 819 821 821 822 824 824 824 826 826 826 827 828 828
781 782 782 782 783 784 786 787 789 790 791 793 794 795 797 798 799 801 802 803 805 807 808 810 811 813 814 815 816 818 819 821 822 824 825 825 825 828 828 828 829 830 830
782 782 782 782 783 783 784 786 787 789 790 791 793 794 796 798 799 800 801 803 805 807 809 810 811 813 814 816 817 818 820 821 823 825 826 826 826 828 829 830 830 831 832
782 782 782 782 782 783 783 784 786 787 789 790 791 793 795 797 798 799 801 803 804 807 809 810 811 812 814 815 817 818 820 822 823 824 825 827 827 828 830 831 832 833 834
782 782 782 782 782 783 783 783 784 786 787 789 790 792 794 795 797 798 799 802 804 806 808 809 810 811 813 814 816 818 820 822 823 824 827 826 828 829 831 832 833 834 835
780 781 781 781 781 782 782 783 783 783 785 787 788 789 792 793 795 797 798 800 802 804 806 807 809 810 811 813 815 817 820 821 822 824 826 826 828 830 832 833 835 835 836
779 780 780 780 780 780 781 781 782 782 782 784 785 786 788 790 792 794 796 798 799 802 804 806 807 808 810 813 814 816 819 821 821 824 825 826 827 830 833 835 835 836 837
778 778 779 779 779 778 779 780 780 780 781 782 783 783 785 786 788 791 792 794 796 798 801 803 805 807 809 811 813 815 817 819 821 824 824 826 827 831 833 836 837 836 838
776 776 776 776 777 777 778 779 779 779 780 780 780 781 782 784 784 786 788 790 793 795 799 800 802 804 808 810 812 814 815 818 821 823 824 828 829 831 834 837 838 838 838
775 776 775 775 775 775 776 777 778 778 778 778 779 780 780 780 781 783 785 786 790 793 799 800 801 802 806 809 810 812 815 818 820 820 824 828 830 832 835 837 840 839 839
775 775 774 774 774 774 775 775 776 776 776 776 777 777 778 778 779 781 782 778 779 789 791 801 800 800 805 809 810 812 815 819 818 820 824 828 830 833 835 839 841 841 840
776 775 775 774 773 773 774 774 774 774 774 774 774 775 775 776 776 778 780 783 784 781 791 789 798 797 804 809 811 811 814 817 821 823 825 828 832 834 836 838 841 842 841
776 776 776 775 775 774 774 773 772 772 771 771 772 772 772 773 773 775 777 780 783 787 789 790 791 790 805 809 812 813 816 818 822 827 828 828 831 835 837 839 841 842 841
776 776 776 775 774 773 773 772 770 769 769 768 768 768 769 770 771 773 775 778 781 785 789 788 790 790 805 810 805 813 817 820 823 828 829 829 833 834 836 838 840 843 842
775 775 775 774 773 772 771 769 767 766 765 765 764 764 764 766 767 768 771 775 778 782 785 787 792 797 796 800 804 814 816 820 825 830 831 832 834 835 834 837 841 843 843
774 773 773 772 770 768 767 765 763 762 761 759 759 760 760 761 762 764 766 769 773 775 778 783 787 794 794 794 801 811 818 823 826 831 832 834 834 836 836 837 841 843 842
772 771 770 768 766 764 763 761 760 758 757 756 754 753 755 757 757 758 760 763 767 770 774 777 783 788 790 791 796 801 817 825 827 831 833 835 837 837 837 838 841 842 844
769 768 767 764 762 761 759 757 756 755 753 752 751 749 750 751 751 754 756 758 761 765 768 773 779 781 785 790 794 793 807 816 826 826 831 836 837 837 837 838 839 839 842
766 764 762 760 758 755 753 752 752 751 750 748 747 746 745 746 748 749 752 754 757 761 764 770 775 779 783 786 791 793 797 805 813 824 828 832 837 837 836 836 837 838 838
762 760 758 756 754 751 749 747 745 744 745 744 743 742 741 740 743 745 747 750 753 757 761 765 771 777 780 784 787 792 798 800 802 807 818 827 832 833 835 833 836 838 837
758 756 754 752 749 747 745 743 742 741 740 739 739 737 736 735 736 740 743 745 748 752 757 761 766 771 777 783 788 792 793 797 800 802 809 819 825 831 831 832 834 836 837
Wind_Speed
3 8 11 9 9 9 8 9 8 7 9 10 11 10 9 9 9 10 11 11 13 12 14 14 13 11 11 11 12 11 10 11 12 12 12 13 13 11 11 14 12 14 15
4 7 13 10 11 9 9 8 9 9 7 8 9 10 10 9 9 10 10 12 11 11 12 12 12 11 11 11 11 9 10 12 12 11 11 13 14 11 9 12 12 13 14
4 8 12 13 11 11 10 9 10 10 10 8 7 10 10 10 10 10 10 11 12 12 12 12 12 11 10 9 9 9 10 11 12 13 10 10 9 10 11 11 13 14 13
1 6 10 14 12 12 11 10 10 11 11 11 10 9 10 10 10 11 11 10 11 12 14 14 11 10 11 10 9 8 8 9 10 8 5 9 8 9 9 12 14 15 14
5 4 5 8 11 12 11 10 11 11 12 12 13 12 11 11 11 11 12 11 10 12 14 15 13 11 10 10 10 9 8 7 9 8 7 7 7 8 9 11 12 13 12
11 6 2 7 10 11 12 13 12 12 12 14 14 13 12 11 11 11 11 10 9 13 15 11 10 11 10 10 9 9 8 7 7 7 6 7 8 8 9 12 15 14 13
9 8 7 3 9 12 12 14 14 15 15 16 17 16 14 13 13 12 11 11 11 15 14 12 9 8 9 10 10 9 9 8 6 5 4 5 7 10 12 14 16 16 16
8 8 7 7 7 7 14 14 15 16 16 16 19 17 17 16 14 12 13 13 14 14 13 11 9 7 9 9 9 9 9 8 7 6 4 4 7 12 13 14 13 13 15
8 8 7 6 6 8 7 14 16 17 17 18 19 20 18 17 14 14 14 15 15 15 14 12 10 9 10 10 10 10 10 9 8 8 3 4 10 14 17 15 14 13 12
7 7 8 8 7 6 6 9 12 18 18 19 19 20 18 18 16 17 17 15 15 15 13 12 10 9 10 10 10 11 12 10 13 6 3 5 8 17 17 16 15 15 14
7 6 7 7 7 7 6 6 9 13 20 19 19 20 19 17 16 17 19 18 15 14 14 12 11 9 10 10 11 12 13 11 9 6 4 5 11 19 17 16 15 15 15
10 9 9 8 7 7 7 7 7 9 11 17 19 20 17 18 18 19 20 23 20 15 14 12 11 11 10 8 9 14 15 13 10 6 4 5 20 20 18 17 17 16 16
13 13 12 10 8 6 6 7 8 8 9 11 16 18 18 20 20 17 22 25 22 19 14 13 11 10 11 11 12 13 16 12 10 8 5 10 19 20 19 17 17 17 16
9 10 9 8 9 7 6 7 9 10 10 10 9 11 16 22 19 22 23 25 27 23 17 16 14 12 12 11 12 16 13 12 10 8 10 15 19 19 17 17 16 17 17
6 7 8 6 6 7 7 7 9 11 13 13 13 11 10 12 18 25 25 26 27 24 20 19 16 13 13 13 14 13 13 13 10 9 14 20 20 20 17 16 15 17 17
6 6 6 5 5 6 7 8 10 10 12 14 15 14 12 11 11 15 24 16 30 28 26 18 14 13 11 12 13 12 12 11 9 10 17 20 21 21 18 16 14 16 17
6 8 8 6 5 4 6 7 9 10 10 11 13 14 15 13 11 13 16 21 21 27 25 23 15 16 10 12 11 10 10 7 6 8 18 24 20 18 17 17 15 16 16
6 7 8 8 7 7 6 7 9 11 12 13 13 13 13 13 11 12 14 16 21 26 29 25 21 19 11 14 12 11 11 13 14 15 20 20 20 18 17 17 15 15 16
3 5 7 8 9 9 8 8 9 11 14 15 15 15 14 14 13 11 14 20 28 31 29 27 28 27 20 18 18 14 12 11 15 19 20 19 21 21 21 18 16 14 16
4 6 9 10 11 12 14 13 13 12 13 14 16 17 16 15 16 16 16 20 26 31 30 31 30 32 30 25 23 15 15 15 14 13 16 19 16 17 17 16 16 14 17
8 11 14 16 17 15 15 15 17 17 17 17 16 18 18 18 18 19 21 23 29 31 34 36 31 30 25 31 25 21 15 10 9 8 9 10 11 14 15 13 14 16 19
12 15 19 20 19 17 15 15 17 19 20 20 17 17 20 20 20 22 23 25 29 27 28 30 32 28 20 33 16 16 4 5 8 8 8 9 10 11 13 13 13 13 12
14 19 21 22 19 18 17 16 16 17 19 19 20 18 20 22 23 24 23 26 31 27 29 29 30 32 22 28 30 8 4 4 12 8 8 8 11 12 12 13 13 13 10
18 21 21 22 21 19 15 15 17 18 19 18 18 21 20 23 24 28 24 27 29 30 28 28 32 29 23 24 23 10 9 16 4 5 9 9 10 11 13 12 12 13 12
21 20 21 23 22 21 18 16 16 18 19 20 21 23 23 23 27 30 29 24 29 28 27 30 30 28 24 26 24 14 12 19 17 6 5 11 12 12 11 12 11 11 11
20 22 22 23 22 20 18 18 18 19 20 20 20 22 23 23 27 29 31 26 28 28 27 33 31 29 25 27 24 22 17 9 13 5 4 15 12 11 10 10 11 10 10
Wind_Direction
155 162 167 177 170 169 171 168 167 169 168 164 172 171 167 161 157 155 151 143 152 136 127 125 122 121 120 117 112 110 105 104 103 96 96 96 97 103 106 103 86 87 93
311 191 177 179 178 188 178 184 185 179 193 188 174 171 169 175 167 164 160 158 150 146 138 134 133 128 124 123 118 121 115 114 112 101 95 85 82 83 97 109 116 101 93
330 185 175 179 198 190 192 198 197 193 199 202 197 192 183 181 177 176 172 165 162 155 148 141 136 132 130 132 126 122 123 122 114 105 99 88 84 78 79 96 109 108 100
44 180 172 188 190 203 201 200 217 201 200 199 209 204 192 189 191 188 184 180 177 172 157 150 139 145 145 137 132 127 129 128 125 116 132 112 93 84 82 83 84 86 91
56 150 158 187 201 201 218 214 220 218 211 217 216 212 213 204 203 199 189 188 189 182 165 156 159 157 152 149 145 144 146 137 133 90 84 91 95 93 93 94 93 95 96
57 51 222 211 216 220 216 217 224 219 229 226 231 225 220 209 202 203 202 204 200 181 171 174 164 161 159 157 158 161 161 158 151 115 110 105 118 108 104 112 100 96 97
38 37 40 340 241 235 231 222 225 230 228 229 232 237 238 227 216 217 215 209 195 182 182 175 165 171 171 169 169 177 175 177 182 158 131 137 123 126 118 111 101 90 88
360 5 10 10 355 277 240 233 226 233 234 233 238 236 237 233 224 219 213 201 187 186 182 181 182 192 191 187 185 190 190 189 195 181 139 130 146 149 132 116 108 105 95
330 330 329 337 335 342 321 249 237 229 239 238 241 244 240 238 232 222 211 200 191 188 191 196 202 206 202 201 203 201 195 194 191 181 165 169 163 152 130 119 112 107 105
308 317 317 311 313 311 304 298 265 243 236 241 247 249 249 244 236 233 216 207 202 204 205 209 210 210 209 209 209 207 194 196 197 147 196 147 170 145 133 122 117 111 108
295 300 320 318 302 289 289 283 281 262 246 241 245 249 246 241 231 225 216 210 210 213 215 212 213 211 207 207 206 200 193 194 223 171 188 202 180 146 132 129 123 117 111
292 291 302 313 309 295 277 272 272 267 251 245 244 245 238 234 233 227 215 212 213 211 219 209 206 208 200 194 197 188 185 196 186 174 202 208 164 140 137 134 128 120 113
291 291 292 290 287 300 285 269 264 261 259 251 252 249 243 240 233 231 216 211 213 206 204 200 196 193 199 192 180 181 193 191 183 178 172 160 141 137 136 132 128 120 113
307 307 303 287 269 273 283 273 262 260 257 258 259 257 253 245 243 232 217 211 212 203 198 190 190 191 195 193 182 183 193 180 193 181 175 168 143 137 134 132 129 122 116
321 322 314 304 275 262 268 271 267 258 259 259 259 262 259 263 254 244 230 215 205 196 191 195 189 184 188 188 184 186 185 187 193 163 163 169 155 145 136 132 134 125 116
354 359 345 329 302 277 271 269 263 263 263 260 259 261 260 253 254 247 245 231 189 195 183 196 181 167 181 185 180 181 184 188 169 149 157 163 147 141 138 138 135 126 118
49 46 39 23 357 317 290 280 267 259 257 257 257 256 252 253 247 245 239 249 207 202 180 166 159 154 175 174 181 176 157 167 159 172 170 153 143 138 145 142 142 130 119
77 53 36 29 23 9 336 300 278 263 259 255 255 253 247 244 240 234 224 222 203 181 176 178 162 143 183 172 159 140 135 120 148 138 140 145 145 150 147 146 144 136 125
51 11 356 348 339 330 318 302 287 274 260 253 249 243 239 231 225 228 227 203 189 194 189 177 168 159 177 167 136 122 113 143 152 160 153 148 154 155 155 150 146 142 133
327 327 327 324 321 315 304 292 279 268 264 257 247 240 235 232 226 219 218 201 200 197 185 179 174 175 172 150 132 128 139 132 140 147 158 156 155 151 148 154 149 144 139
301 317 321 317 312 304 291 284 280 271 262 247 250 243 235 226 221 223 219 214 198 189 187 182 176 177 165 145 124 109 103 111 134 149 137 152 157 159 149 146 150 142 132
296 309 316 312 306 300 292 282 277 277 274 269 251 240 234 227 218 218 218 209 208 192 185 180 179 181 173 165 154 119 131 113 134 150 149 155 161 160 160 162 160 156 151
300 313 307 304 301 298 293 290 281 275 267 265 263 243 233 231 220 213 207 207 203 188 189 180 181 180 172 175 168 151 140 170 143 141 157 178 176 169 162 162 161 154 159
297 306 300 300 295 292 288 284 278 273 273 267 262 257 240 235 227 213 210 212 201 197 190 192 190 190 183 184 186 185 189 155 168 150 168 180 193 182 172 167 165 164 162
303 308 302 294 290 289 286 277 271 268 268 268 265 262 253 233 231 222 210 204 204 201 193 185 184 189 190 185 183 191 164 171 158 156 154 172 188 184 182 172 174 173 175
312 307 301 296 289 288 286 284 277 266 262 262 266 270 258 238 225 223 216 207 200 200 197 193 190 188 187 188 188 190 175 172 172 149 136 158 155 175 174 173 180 182 183